Wind_Speed
110 108 106 104 103 102 101 100 100 100 100 100 100 100 101 101 102 102 102 103 103 104 104 104 104 104 104 104 104 104 104 104 104 104 103 103 103 103 103 103 102 102 102 101 101 100 99 99 98 97 97 96 95 95 95 95 95 95 95 94 94 94 94 94 94 94 94 93 93 93 92 92 92 92 91 91 90 90 90 90 91 91 91 92 92 93
106 105 103 102 101 100 99 98 98 98 98 98 98 98 98 98 99 99 100 100 101 101 101 101 101 101 101 101 102 102 102 102 102 102 101 101 101 101 101 101 101 101 100 100 100 99 99 98 97 96 95 95 94 94 94 94 94 94 94 94 93 93 93 94 94 94 94 93 93 92 92 92 91 91 91 90 90 89 90 90 91 91 91 92 92 93
103 102 101 100 98 98 97 96 96 96 96 96 96 96 96 96 96 97 97 98 98 99 99 99 99 99 99 99 100 100 100 100 100 100 100 99 99 99 99 99 99 99 99 99 99 98 98 98 97 96 95 94 93 93 93 93 93 93 93 93 92 92 93 93 93 93 93 93 93 92 92 91 91 91 90 89 89 88 89 90 90 91 91 92 93 94
100 99 98 97 96 95 95 94 94 94 94 94 94 93 93 94 94 94 94 95 96 96 97 97 97 97 97 98 98 98 98 98 98 98 98 98 98 98 98 98 97 97 97 97 97 98 98 97 97 95 94 93 92 92 92 92 92 93 92 92 92 92 92 92 92 93 93 93 92 92 91 91 90 90 89 88 88 88 88 88 89 90 91 92 93 94
97 96 96 95 94 93 92 92 92 92 92 92 92 91 91 91 91 92 92 92 93 94 94 95 95 96 96 96 96 96 96 97 97 97 97 97 96 96 96 96 96 96 96 96 97 97 97 97 96 95 94 93 92 91 91 91 91 91 91 91 91 91 91 91 92 92 92 92 91 91 91 90 90 89 88 88 87 87 87 87 88 89 89 90 92 92
93 93 92 92 91 91 90 90 90 90 90 90 89 89 89 89 89 89 89 90 91 91 92 92 93 94 94 94 94 94 95 95 95 95 95 95 95 95 95 95 95 95 95 95 96 96 96 96 96 95 94 92 91 91 90 90 90 90 90 90 90 90 90 90 91 91 91 91 91 90 90 90 89 88 88 87 86 86 86 86 86 87 87 88 90 91
91 90 89 89 89 88 87 87 87 88 88 88 87 87 86 86 86 87 87 87 88 89 89 90 91 91 92 92 92 93 93 93 94 94 94 94 94 94 94 94 94 94 94 94 95 95 95 95 95 94 93 92 91 90 90 89 89 89 89 89 89 89 89 90 90 90 90 90 90 90 90 89 89 88 87 86 86 85 85 85 84 85 85 87 88 89
89 88 87 86 86 85 85 84 85 85 85 85 85 84 84 84 84 84 84 85 85 86 87 87 88 89 89 90 90 91 91 92 92 92 92 92 92 93 92 93 93 93 93 93 94 94 94 94 93 93 92 91 90 89 89 89 89 89 88 88 88 88 88 88 89 89 89 89 88 88 89 88 88 87 86 85 85 85 84 83 83 83 84 85 87 87
87 86 85 84 83 83 83 82 82 82 83 83 82 82 81 81 81 81 82 82 83 83 84 84 85 86 87 88 88 89 89 90 90 90 91 91 91 91 91 91 91 92 92 92 92 92 92 92 91 91 91 90 89 89 88 88 88 88 87 87 87 87 87 87 87 88 87 87 87 87 87 87 87 86 85 84 84 84 83 82 82 82 83 84 85 86
86 84 83 82 80 80 80 80 80 80 80 81 80 80 79 79 79 79 79 79 80 81 81 82 82 83 84 85 86 87 87 88 88 88 89 89 90 90 90 90 90 91 91 91 91 91 90 90 90 90 90 89 88 88 87 87 87 87 87 86 86 86 86 86 86 86 86 86 86 86 86 86 86 85 84 83 83 82 81 80 80 81 82 83 84 84
84 83 81 80 79 78 78 78 77 77 77 78 78 78 77 77 77 77 77 77 77 78 79 79 80 80 81 82 83 84 85 85 86 86 87 87 88 88 88 89 89 89 89 89 89 89 88 88 88 88 88 88 88 87 86 86 86 86 86 85 85 85 85 85 85 85 85 85 85 85 85 85 84 84 82 82 81 80 80 79 79 80 81 82 82 82
83 81 80 79 77 76 76 76 75 75 76 76 76 76 76 76 75 75 75 74 74 75 76 77 77 77 78 79 80 81 82 83 83 83 84 85 85 86 86 87 87 88 88 87 87 87 87 86 86 86 87 87 86 86 86 85 85 85 84 84 84 83 83 83 83 84 83 83 83 83 84 84 83 82 81 80 80 79 78 77 77 79 80 81 81 80
82 80 79 77 76 75 75 74 74 74 74 74 74 74 74 74 74 74 73 72 72 72 73 74 74 75 75 76 77 78 79 80 80 80 81 82 83 83 84 85 85 86 86 85 85 85 85 85 85 85 85 85 85 85 84 84 84 83 83 83 82 82 82 82 82 82 82 82 82 82 82 82 82 81 80 79 78 77 76 76 76 77 79 79 79 79
81 79 78 76 75 74 74 73 73 73 73 73 73 74 73 73 73 73 72 71 70 70 70 71 71 72 73 74 75 76 76 77 77 78 78 79 80 81 82 82 83 83 83 83 83 83 83 83 83 83 83 83 84 83 83 83 82 82 81 81 81 81 81 81 81 81 81 81 81 81 81 81 80 79 79 78 77 76 75 75 75 76 77 77 77 77
79 78 77 75 74 73 73 72 72 72 72 72 73 73 72 72 72 71 70 69 68 68 68 68 69 69 70 71 72 73 74 74 74 75 75 76 77 78 79 80 80 81 81 81 81 81 82 82 81 81 81 82 82 82 82 81 81 80 80 79 79 79 79 80 80 80 80 80 80 79 79 79 79 78 77 77 76 75 75 74 74 75 75 76 76 76
78 77 75 74 73 72 72 72 72 71 71 71 72 72 71 71 70 69 69 68 67 66 66 66 66 66 67 69 70 71 72 72 72 72 72 73 74 75 76 77 78 78 79 79 79 79 80 80 80 80 80 80 80 80 80 80 79 79 78 78 77 77 78 78 79 79 79 79 79 78 78 78 77 77 76 76 75 75 74 74 74 74 74 74 75 75
76 75 74 73 72 71 71 71 71 71 70 70 71 70 70 69 68 68 67 66 65 65 64 64 64 64 65 66 68 70 70 70 70 69 70 70 71 73 74 75 75 76 76 77 77 77 78 78 78 78 78 78 78 78 78 78 77 77 76 76 75 76 76 77 78 78 78 78 77 77 77 76 76 75 75 75 74 74 73 73 73 73 73 73 74 74
74 73 72 71 71 70 70 70 70 70 70 69 69 69 68 68 67 66 66 65 64 63 63 62 62 62 63 64 66 68 68 68 68 67 67 67 69 70 71 72 73 73 74 75 75 76 76 76 76 76 76 76 76 76 76 76 75 75 74 74 74 74 75 76 77 77 77 77 76 76 75 75 74 74 74 74 73 73 72 72 71 71 71 72 72 73
72 71 71 70 69 69 68 68 68 68 68 68 67 67 66 66 65 65 64 63 63 62 61 61 60 60 61 62 64 66 67 67 66 65 64 65 66 67 69 70 71 71 72 72 73 74 74 74 74 74 74 74 74 74 74 74 73 73 72 72 72 73 75 75 76 76 76 76 75 75 74 73 73 73 73 73 72 72 71 70 70 70 70 71 71 71
69 69 68 68 67 67 66 66 66 66 66 66 65 64 64 64 63 63 62 62 61 60 60 59 59 59 59 60 62 64 65 65 64 63 62 62 63 65 67 68 69 69 69 70 71 71 71 71 71 71 72 72 72 71 71 71 71 71 70 71 72 73 74 75 75 75 75 75 74 74 73 72 72 72 72 71 71 70 69 69 69 69 69 70 70 70
66 66 66 66 65 65 64 64 64 64 64 63 63 62 62 61 61 61 60 60 59 59 58 57 57 57 57 59 60 62 63 63 62 61 60 60 61 63 65 66 66 67 67 68 68 69 69 69 69 69 69 69 69 69 69 68 68 69 69 70 71 72 73 74 74 74 74 74 73 73 72 71 71 71 70 70 69 69 68 68 68 68 69 69 69 68
64 64 63 63 63 63 62 62 62 62 62 61 61 60 60 59 59 59 59 58 58 57 56 56 55 55 56 57 58 60 61 61 60 59 58 58 59 61 63 64 64 64 64 65 66 66 66 66 66 67 67 67 66 66 66 66 66 67 68 69 70 71 72 73 73 73 73 73 72 72 71 70 70 69 69 68 67 67 67 67 67 67 67 67 67 67
63 62 61 61 60 60 60 59 59 59 59 59 59 58 58 57 57 57 56 56 56 55 55 54 54 54 54 56 57 58 59 59 58 57 56 56 57 59 60 61 61 61 62 63 63 64 64 64 64 64 64 64 64 64 64 64 65 66 67 68 69 70 71 71 71 71 71 71 71 71 70 69 69 68 67 66 65 65 65 65 66 66 66 66 66 65
62 60 59 59 58 58 57 57 57 57 57 57 57 56 56 55 55 55 54 54 54 54 53 53 53 53 53 54 56 57 57 57 56 55 54 54 55 56 58 59 59 59 59 60 60 61 61 61 61 61 61 61 61 61 62 62 63 65 66 67 68 68 69 69 69 69 70 70 70 69 69 68 67 66 64 63 63 63 63 64 64 64 64 64 64 64
61 60 58 57 56 55 55 54 54 55 55 55 55 54 54 54 53 53 53 53 53 52 52 52 52 52 53 54 54 55 55 55 54 53 52 52 52 53 55 56 57 57 57 57 57 58 58 59 59 59 59 59 59 59 60 61 62 63 65 65 66 66 67 67 67 68 68 68 68 68 67 66 65 64 62 60 59 59 61 62 63 63 63 63 63 64
61 59 58 56 55 54 53 53 52 52 53 53 53 53 52 52 52 51 51 51 51 51 51 51 51 51 52 53 53 53 53 53 52 51 50 49 50 51 53 54 54 54 54 54 55 55 56 56 56 56 56 56 56 57 58 59 60 62 63 63 64 64 64 65 65 66 66 66 66 65 65 64 63 61 59 57 56 57 59 60 61 61 61 62 62 63
60 59 57 55 54 53 52 51 51 51 51 51 51 51 51 50 50 50 50 50 50 50 50 50 50 50 51 51 52 52 51 51 50 49 48 47 47 49 50 52 52 52 52 52 52 52 53 54 54 54 54 54 54 55 56 57 59 60 60 61 61 62 62 63 63 64 64 63 63 63 62 62 61 59 57 55 54 56 58 59 60 60 60 61 62 62
59 58 56 54 53 52 51 50 50 49 49 49 49 49 49 49 49 49 49 50 50 49 49 49 49 49 50 50 50 50 50 49 48 47 45 45 45 46 48 49 49 49 49 49 49 50 51 52 52 52 52 52 52 53 54 55 56 57 58 58 59 59 60 60 61 61 61 61 60 60 59 59 58 56 54 53 54 55 57 58 59 59 59 60 61 61
58 56 55 53 52 51 50 49 49 48 48 48 48 48 48 48 48 48 48 49 49 48 48 48 48 48 48 48 48 48 48 48 46 45 43 43 43 44 46 47 47 47 46 47 47 48 49 49 49 49 49 49 50 50 52 53 54 55 55 56 56 57 57 58 58 58 58 57 57 56 56 55 54 53 52 52 53 54 56 57 57 58 58 59 60 60
57 55 54 52 51 50 49 48 48 47 47 47 47 47 46 46 47 47 47 48 48 47 47 47 47 47 47 47 47 47 47 46 44 43 41 41 41 42 43 44 45 45 45 45 46 46 47 47 47 47 47 47 47 48 49 50 51 52 53 53 54 54 54 55 55 55 55 54 54 53 52 52 51 51 50 51 52 54 55 55 56 57 57 58 58 59
55 54 52 51 50 49 48 47 47 46 46 46 46 46 45 45 45 45 46 46 46 46 46 46 46 45 45 45 45 46 46 44 42 40 39 39 40 41 42 42 43 43 43 43 44 44 45 45 45 44 44 45 45 46 47 48 48 49 50 50 50 51 51 51 51 51 51 51 50 50 49 49 49 49 49 50 51 53 53 54 55 55 56 56 57 58
54 52 51 49 48 47 47 46 46 45 45 45 45 44 44 44 44 44 44 44 44 45 45 45 44 44 44 43 44 44 44 43 41 38 37 37 38 39 40 41 41 41 41 41 42 42 43 42 42 42 42 42 43 44 44 45 46 46 47 47 48 48 48 48 48 48 48 48 48 47 47 47 47 48 49 50 51 52 53 53 54 54 55 55 56 57
53 51 50 48 47 46 45 45 45 44 44 44 43 43 43 43 43 43 43 43 43 43 43 43 43 43 42 42 42 42 42 40 38 37 36 36 37 38 39 39 39 39 39 40 40 40 40 40 40 40 40 40 41 41 42 43 43 44 44 45 45 45 45 46 46 46 46 46 46 46 46 46 47 48 49 49 50 51 52 53 53 54 54 55 56 56
51 50 48 47 46 45 44 44 43 43 43 42 42 42 41 41 41 41 41 42 42 42 42 42 41 41 41 40 40 40 40 38 36 35 35 35 36 37 37 37 37 37 38 38 38 38 38 38 38 38 38 39 39 40 40 41 41 42 42 43 43 43 44 44 44 44 44 44 45 45 45 46 47 47 48 49 50 51 52 52 53 53 54 55 55 56
49 48 47 46 45 44 43 43 42 41 41 41 40 40 40 40 40 40 40 40 40 40 40 40 40 39 39 39 39 38 38 36 35 34 34 34 35 35 35 35 35 36 36 36 36 36 36 37 37 37 37 37 38 38 39 40 40 41 41 41 42 42 42 43 43 43 44 44 44 44 45 46 46 47 48 49 50 51 51 51 52 53 53 54 55 55
47 46 45 44 43 43 42 41 40 40 39 39 39 39 39 39 39 39 39 39 39 39 38 38 38 38 37 37 37 36 36 34 34 33 33 33 33 33 33 33 34 34 34 34 34 35 35 35 35 35 36 36 37 38 38 39 39 39 40 40 41 41 42 42 42 43 43 43 44 44 45 45 46 47 48 49 49 50 50 51 52 52 53 54 54 54
45 44 44 43 42 41 40 39 38 38 38 37 37 38 38 38 38 38 38 37 37 37 37 36 36 36 36 35 35 34 34 33 32 32 32 31 31 31 32 32 32 32 32 32 32 33 33 33 34 34 34 35 36 36 37 38 38 38 39 39 40 40 41 41 41 42 42 43 43 44 44 45 45 46 47 48 49 49 50 50 51 52 52 53 53 53
43 42 42 41 40 39 38 37 37 36 36 36 37 37 37 37 37 37 36 36 35 35 35 35 35 35 34 34 33 33 32 31 31 31 30 30 30 30 30 30 30 30 30 30 31 31 31 32 32 32 33 33 34 35 35 36 36 37 38 38 38 39 39 40 40 41 41 42 42 43 43 44 45 46 47 47 48 48 49 50 50 51 51 52 52 52
41 40 40 39 38 37 36 36 35 35 35 36 36 36 36 36 35 35 35 34 34 34 34 33 33 33 33 32 31 31 30 30 29 29 29 29 28 28 28 28 28 28 28 28 29 29 29 29 30 30 31 31 32 32 33 34 34 35 36 36 37 37 38 38 39 39 40 40 41 41 42 43 44 45 46 46 47 48 49 49 50 50 50 51 51 51
39 38 37 36 36 35 35 34 34 35 35 35 35 35 34 34 34 33 33 33 33 33 32 32 32 31 31 30 30 29 29 28 28 28 28 27 27 27 27 26 26 26 26 26 27 27 27 27 27 28 28 29 29 30 31 32 32 33 34 35 35 36 36 36 37 37 38 39 40 40 41 42 43 44 44 45 46 47 48 48 49 49 49 49 50 50
37 36 35 35 34 34 34 34 34 34 34 34 33 33 33 32 32 32 32 32 31 31 31 31 30 30 29 29 28 28 28 27 27 27 26 26 26 25 25 25 25 24 24 25 24 25 25 25 26 26 26 27 28 28 29 30 31 31 32 33 33 34 34 35 35 36 37 38 38 39 40 41 42 42 43 44 45 46 46 47 47 47 47 47 48 48
35 34 34 33 33 33 33 33 33 33 32 32 32 31 31 31 30 30 30 30 30 30 30 29 29 28 28 28 27 27 26 26 26 25 25 25 24 24 24 23 23 23 23 23 23 23 23 24 24 25 25 26 27 27 28 29 30 30 31 31 32 32 33 34 34 35 36 36 37 38 39 39 40 41 42 43 43 44 44 45 45 45 46 46 46 46
33 32 32 32 32 32 32 32 32 31 31 30 30 30 30 29 29 29 29 29 29 28 28 28 27 27 27 27 26 26 25 25 24 24 24 23 23 23 22 22 22 22 22 22 22 22 23 23 24 24 25 25 26 27 28 28 29 29 30 30 30 31 32 33 33 34 34 35 36 37 37 38 39 40 40 41 42 42 43 43 43 43 44 44 44 44
31 31 31 31 31 31 31 30 30 30 29 29 29 28 28 28 28 27 27 27 27 27 26 26 26 26 26 25 25 24 24 24 23 23 22 22 21 21 21 21 21 21 21 21 21 22 22 23 23 24 24 25 25 26 27 27 28 28 29 29 29 30 31 31 32 32 33 34 35 35 36 37 37 38 39 39 40 40 41 41 41 41 41 42 42 42
30 30 30 30 30 29 29 29 28 28 28 27 27 27 27 26 26 26 26 25 25 25 25 25 24 24 24 24 24 23 23 22 22 21 21 20 20 20 20 20 20 20 20 21 21 22 22 22 23 23 24 24 25 25 26 26 27 27 27 28 28 28 29 29 30 31 32 33 34 34 35 35 36 37 37 38 38 38 39 39 39 39 39 40 40 41
29 29 29 28 28 28 27 27 27 26 26 26 26 25 25 25 24 24 24 24 24 23 23 23 23 23 23 22 22 21 21 20 20 20 19 19 19 19 19 19 20 20 20 20 21 21 21 22 22 23 23 23 24 24 25 25 26 26 27 27 27 28 28 29 30 31 31 32 33 33 34 34 35 35 36 36 36 36 37 37 37 38 38 39 40 41
27 27 27 27 26 26 26 25 25 25 24 24 24 24 23 23 23 22 22 22 22 21 21 21 21 21 21 20 20 19 19 19 18 18 18 18 18 18 19 19 19 19 19 20 20 21 21 21 22 22 22 23 23 24 24 25 25 26 26 27 27 28 29 29 30 30 31 32 32 32 33 33 33 34 34 35 35 35 36 36 37 38 39 40 41 43
26 25 25 25 24 24 24 24 23 23 23 23 22 22 21 21 21 20 20 20 19 19 19 19 19 19 19 18 18 17 17 17 17 17 17 17 17 17 18 18 18 19 19 19 20 20 21 21 21 22 22 22 23 24 24 24 25 25 26 26 27 28 28 29 29 30 30 31 31 31 31 32 32 33 33 33 34 35 36 37 38 39 40 42 43 45
24 24 23 23 23 22 22 22 21 21 21 21 20 20 20 19 19 18 18 18 18 17 17 17 17 17 16 16 16 15 15 15 15 16 16 16 16 16 17 17 17 18 18 19 19 20 20 20 21 21 22 22 22 23 23 24 24 25 25 26 27 27 28 28 29 29 29 30 30 30 31 31 32 32 33 34 35 36 37 39 40 41 42 44 45 47
22 22 21 21 21 20 20 20 20 20 19 19 19 18 18 17 17 17 16 16 16 16 16 15 15 15 15 15 14 14 14 14 14 15 15 15 15 16 16 16 17 17 17 18 19 19 20 20 21 21 21 22 22 22 23 23 24 24 25 26 26 27 27 28 28 28 29 29 30 30 31 31 32 33 34 36 37 38 40 41 42 43 44 45 46 48
20 20 19 19 19 19 19 18 18 18 18 17 17 17 16 16 15 15 15 15 15 15 14 14 14 14 14 14 14 14 14 14 14 14 14 15 15 16 16 16 16 17 17 18 18 19 19 20 20 21 21 21 21 21 22 23 23 23 24 25 25 26 26 27 27 28 28 29 30 30 31 32 33 34 35 37 38 40 41 42 44 45 46 46 48 49
Wind_Direction
291 290 289 288 287 286 285 283 282 281 280 279 278 277 276 275 274 274 273 273 272 272 272 271 271 271 271 270 270 270 270 269 269 269 269 268 268 268 268 268 268 268 267 267 267 267 267 267 266 266 266 267 267 267 267 267 267 267 267 267 267 267 267 267 267 267 267 267 268 268 268 269 269 270 270 271 272 272 273 273 273 273 273 274 274 274
291 290 289 288 287 286 285 283 282 281 280 279 277 276 275 275 274 273 273 272 272 271 271 271 270 270 270 269 269 269 269 268 268 268 268 267 267 267 267 267 267 267 267 267 267 266 266 266 265 265 265 265 265 265 265 265 266 266 266 266 266 266 266 267 267 267 267 267 267 267 268 268 269 269 270 270 271 272 272 273 273 273 273 273 273 273
291 290 289 288 287 286 285 284 282 281 280 279 277 276 275 274 273 273 272 272 271 271 270 270 270 269 269 268 268 268 268 267 267 267 267 266 266 266 266 266 266 266 266 266 266 265 265 265 265 264 264 264 264 264 264 264 264 264 265 265 265 265 265 266 266 266 266 267 267 267 267 268 268 268 269 270 270 271 271 272 272 273 273 273 273 273
291 290 289 288 287 286 285 284 283 281 280 279 277 276 275 274 273 273 272 271 271 270 270 269 269 269 268 268 267 267 267 266 266 266 266 265 265 265 265 265 265 265 265 265 265 265 264 264 264 264 263 263 263 263 263 263 263 263 264 264 264 264 264 265 265 265 266 266 266 266 267 267 267 268 268 269 269 270 270 271 272 272 273 273 274 274
291 290 289 288 287 286 285 284 283 281 280 279 278 277 276 275 274 273 272 271 270 270 269 269 269 268 268 267 267 266 266 266 265 265 265 265 264 264 264 264 264 264 264 264 264 264 264 264 263 263 263 263 262 262 262 262 262 262 263 263 263 263 263 263 264 264 265 265 265 266 266 266 267 267 267 268 269 269 270 270 271 272 273 273 274 275
291 290 289 288 287 286 285 284 283 282 281 279 278 277 276 275 274 273 272 271 270 270 269 269 268 268 267 267 266 266 266 265 265 265 264 264 263 263 263 263 263 262 262 262 262 262 263 263 263 263 263 262 262 262 262 262 262 262 262 262 262 262 263 263 263 263 264 264 265 265 265 266 266 266 267 267 268 268 268 269 270 271 272 273 273 274
291 290 289 288 287 286 285 284 283 282 281 280 279 278 277 276 275 274 273 272 271 270 269 268 268 267 267 267 266 266 265 265 264 264 264 263 263 263 262 262 262 261 261 261 261 261 262 262 262 262 262 262 262 262 261 261 261 261 261 261 261 262 262 262 262 263 263 263 264 265 265 265 266 266 266 267 267 267 267 268 269 270 271 271 272 273
290 289 289 288 287 286 285 284 284 283 282 281 280 279 278 276 275 274 273 272 271 270 269 269 268 267 267 266 266 265 265 264 264 264 263 263 262 262 262 261 261 261 260 260 260 260 261 261 261 262 262 261 261 261 261 261 261 261 261 261 261 261 261 261 262 262 262 263 263 264 264 265 265 265 266 266 266 267 267 267 268 269 269 270 271 272
290 289 289 288 287 286 286 285 284 283 282 281 280 279 278 277 276 275 274 273 271 271 270 269 268 267 267 266 266 265 264 264 263 263 263 263 262 262 261 261 260 260 260 260 260 260 260 260 261 261 261 261 261 261 260 260 260 260 260 260 260 260 261 261 261 262 262 262 263 263 264 264 264 265 265 266 266 266 267 267 268 268 268 269 270 271
290 289 289 288 287 287 286 285 284 283 282 281 281 280 279 277 276 275 274 273 272 271 270 269 268 267 267 266 265 265 264 264 263 263 262 262 262 261 261 261 260 260 260 260 260 260 260 260 260 260 260 260 260 260 260 260 260 260 260 260 260 260 260 260 261 261 261 262 262 263 263 263 264 264 264 265 265 266 266 267 267 267 267 268 269 271
290 289 289 288 288 287 286 285 284 283 282 281 281 280 279 278 276 275 274 273 273 272 271 270 269 268 267 266 266 265 264 264 263 263 262 262 262 261 261 261 260 260 260 260 259 260 259 259 259 259 260 260 259 259 259 259 259 259 259 259 259 259 259 260 260 260 261 261 261 262 262 263 263 263 264 264 265 265 266 266 266 267 267 268 269 270
289 289 289 288 288 287 286 285 284 283 282 281 280 280 279 278 277 275 274 273 273 272 271 271 270 269 268 267 266 265 265 264 263 263 262 262 262 261 261 261 260 260 260 260 260 259 259 259 259 259 259 259 259 259 259 258 258 258 258 259 259 259 259 259 259 259 260 260 260 261 261 262 262 263 263 263 264 264 265 265 266 266 267 268 269 270
289 289 289 288 287 287 286 285 284 283 282 281 280 279 278 277 277 276 275 274 273 272 272 271 270 270 269 268 267 266 265 264 264 263 262 262 262 261 261 261 260 260 260 260 260 259 259 259 259 258 258 258 259 258 258 258 258 258 258 258 258 258 258 258 258 258 259 259 259 260 260 261 261 262 262 263 263 263 263 264 264 265 266 268 269 269
289 289 288 288 287 286 285 284 283 282 281 280 279 279 278 277 277 276 275 275 274 273 272 271 271 270 269 269 267 266 265 265 264 263 262 262 262 261 261 261 260 260 260 260 259 259 259 259 258 258 258 258 258 258 258 258 257 257 257 257 257 257 257 257 257 258 258 258 258 259 259 260 261 261 261 262 262 262 262 263 263 264 265 266 267 268
288 288 288 287 286 285 284 283 282 281 280 280 279 278 278 277 277 276 276 275 275 274 273 272 271 270 270 269 268 267 266 265 264 263 263 262 262 261 261 261 260 260 260 260 259 259 259 258 258 258 258 257 257 257 257 257 257 257 257 257 257 257 257 257 257 257 257 257 257 258 258 259 259 260 261 261 261 261 262 262 262 263 264 265 266 267
288 288 287 286 285 284 283 282 281 280 280 279 278 278 278 277 277 277 276 276 275 274 273 272 271 270 270 269 268 267 266 265 264 263 263 262 262 261 261 261 260 260 260 259 259 259 259 258 258 257 257 257 257 257 257 257 257 256 256 256 256 256 256 256 256 256 256 256 256 257 257 258 258 259 259 260 260 261 261 261 262 262 263 264 264 265
287 287 286 285 284 283 282 282 281 280 279 279 278 278 278 278 278 277 277 276 275 274 273 272 271 270 269 269 268 267 267 266 265 264 263 262 262 261 261 261 260 260 260 259 259 259 258 258 258 257 257 257 257 257 257 257 256 256 256 256 255 255 255 255 255 255 255 256 256 256 256 257 257 258 258 259 259 260 260 260 261 261 262 263 263 264
287 286 285 284 284 283 282 281 280 280 279 278 278 278 278 278 278 277 277 276 275 274 273 272 271 270 269 268 268 268 267 266 265 264 263 263 262 262 261 261 260 260 260 259 259 259 258 258 258 257 257 257 256 256 256 256 256 256 256 255 255 255 254 254 254 254 255 255 255 255 256 256 256 257 257 258 258 259 259 260 260 260 261 261 262 263
286 285 285 284 283 282 281 280 280 279 279 279 278 278 278 278 277 277 276 276 275 274 273 272 271 270 269 268 268 268 267 267 266 265 264 263 262 262 261 261 260 260 260 259 259 259 258 258 258 257 257 257 256 256 256 256 256 255 255 255 254 254 253 253 253 254 254 254 254 255 255 255 255 256 256 257 257 258 258 259 259 259 259 260 261 262
286 285 284 283 282 281 281 280 280 279 279 279 278 278 278 277 277 276 276 275 275 274 273 272 272 271 270 269 268 268 267 267 266 265 264 263 262 262 261 261 260 260 260 259 259 259 258 258 258 257 257 256 256 256 256 255 255 255 254 254 253 253 253 253 253 253 253 253 254 254 254 254 254 255 256 256 257 257 257 257 257 257 258 259 260 261
285 284 283 283 282 281 280 280 280 279 279 279 278 278 277 277 277 276 276 275 275 274 274 273 272 271 270 269 268 267 267 267 267 266 265 263 262 262 261 261 260 260 259 259 259 259 258 258 258 257 257 256 256 256 255 255 254 254 253 253 252 252 252 252 252 252 253 253 253 253 253 254 254 254 255 255 256 256 256 256 256 256 257 258 259 260
285 284 283 282 281 281 280 280 280 279 279 279 278 278 277 277 276 276 276 276 275 274 274 273 272 271 270 269 268 267 267 267 266 266 265 263 262 262 261 261 260 260 259 259 259 259 258 258 257 257 257 256 256 255 255 254 254 253 252 252 252 252 252 252 252 252 252 253 253 253 253 253 253 253 254 254 255 255 254 254 255 255 256 257 258 258
285 283 283 282 281 281 281 280 280 280 279 279 278 278 278 277 277 276 276 275 275 275 274 273 272 270 269 268 267 267 267 267 266 266 265 263 262 262 261 261 261 260 260 259 259 259 258 258 257 257 256 256 255 255 254 254 253 252 252 251 251 251 251 252 252 252 252 253 253 253 252 252 252 252 253 253 253 253 253 253 254 254 255 256 256 257
285 284 283 282 282 281 281 280 280 280 279 279 279 279 278 277 277 276 276 275 275 274 274 273 271 270 269 268 267 267 266 266 266 266 265 264 263 262 262 261 261 260 260 259 259 259 258 258 257 257 256 255 255 254 253 253 252 251 251 251 251 251 251 251 252 252 252 253 253 253 253 253 253 252 252 252 252 252 252 252 252 253 254 255 255 256
286 285 284 283 282 282 281 281 280 280 279 279 279 279 278 278 277 276 276 275 274 274 273 272 271 270 269 268 267 267 267 267 267 266 265 264 263 262 262 262 261 261 260 259 259 259 258 258 257 257 256 255 254 253 252 252 251 251 250 250 250 251 251 251 251 252 252 252 253 253 254 254 254 253 253 252 251 251 251 251 251 252 253 253 254 255
286 285 285 284 283 283 282 281 280 280 279 279 278 278 278 277 277 276 275 275 274 273 272 272 271 270 269 268 267 267 267 267 267 266 265 264 263 262 262 262 261 261 260 260 259 259 258 258 257 256 255 254 253 253 252 251 250 250 250 250 250 250 250 250 251 251 251 252 253 253 254 254 254 254 253 252 251 250 249 250 251 251 252 252 253 254
286 285 285 285 284 283 282 282 281 280 279 279 278 278 277 277 276 276 275 274 273 272 272 271 270 270 269 269 268 268 268 267 267 266 265 264 263 262 262 262 261 261 260 260 259 259 258 257 257 256 255 254 253 252 251 250 250 250 250 250 250 250 250 250 250 251 251 251 252 253 253 254 254 254 253 252 250 248 248 249 250 250 251 252 252 253
285 285 285 285 284 284 283 282 281 280 279 279 278 277 277 276 275 275 274 274 273 272 271 271 270 269 269 269 269 268 268 267 267 266 266 264 263 262 262 262 261 261 260 260 259 258 258 257 256 255 254 253 252 251 250 250 250 249 249 249 249 249 249 249 250 250 251 251 252 252 252 253 253 253 252 250 249 247 247 248 249 250 250 251 252 253
285 285 285 285 284 284 283 282 281 280 279 278 277 277 276 275 274 274 273 273 273 272 271 271 270 270 269 269 269 269 268 268 267 267 266 265 263 262 262 262 262 261 260 259 259 258 257 256 256 255 254 253 252 251 250 249 249 249 249 249 249 249 249 249 249 250 250 251 251 251 251 251 251 251 250 249 247 247 247 248 249 249 250 251 251 252
284 285 285 284 284 283 283 282 281 280 279 278 277 276 275 274 274 273 273 273 272 272 272 271 270 270 270 269 269 269 268 268 268 267 266 265 264 263 262 261 261 260 259 258 258 257 256 256 255 254 253 252 251 250 250 249 249 249 248 248 248 248 248 248 249 249 250 250 250 250 250 249 249 248 247 247 246 246 247 248 248 249 250 250 251 251
284 284 284 284 283 283 282 281 280 279 278 277 276 275 275 274 273 273 273 272 272 272 271 271 270 270 269 269 269 268 268 268 268 268 267 265 264 262 261 261 260 259 258 257 256 256 256 255 254 253 252 251 250 249 249 248 248 248 247 247 247 247 247 247 247 248 248 248 248 247 247 247 246 245 245 245 245 246 246 247 248 249 249 249 250 250
283 283 283 283 282 282 281 280 279 278 277 276 275 275 274 274 273 273 272 272 272 271 271 271 270 270 269 269 269 268 268 269 269 268 266 265 263 261 260 260 259 258 257 257 256 255 255 254 253 252 251 250 249 248 247 247 247 246 246 246 245 245 245 245 245 246 246 245 245 244 244 243 243 243 243 243 244 245 246 247 247 248 248 248 248 249
283 283 282 282 281 280 279 278 277 277 276 275 275 275 274 274 273 273 272 271 271 271 270 270 270 270 269 269 269 268 269 269 269 268 266 264 262 260 260 259 258 257 257 256 255 254 253 253 252 251 249 248 247 246 245 245 245 244 244 243 243 243 243 243 243 243 242 242 242 241 241 241 240 241 241 242 243 244 245 246 247 247 247 247 247 248
282 282 281 281 280 279 278 277 276 276 275 275 275 274 274 273 272 272 271 271 270 270 270 270 270 270 269 269 269 268 268 268 268 267 265 262 261 260 259 258 257 257 256 255 254 253 252 251 250 249 248 246 245 244 243 242 242 242 241 241 241 240 240 240 240 240 239 239 239 238 238 238 238 239 240 241 242 243 244 245 245 245 245 246 246 247
280 280 280 279 278 278 277 276 276 275 275 275 275 274 273 272 271 271 270 270 270 270 270 270 270 269 269 268 268 268 268 268 267 265 263 262 260 260 259 258 257 256 255 254 253 252 250 249 248 247 245 244 243 242 241 240 240 240 239 239 239 238 238 238 238 237 237 237 236 236 236 237 237 238 239 240 241 243 243 244 244 244 245 246 246 247
279 278 278 278 277 277 276 276 276 275 275 274 273 273 272 271 271 270 270 270 270 270 270 270 270 269 269 268 268 267 267 266 265 264 263 261 260 260 258 257 256 255 254 253 252 251 249 248 247 245 244 243 242 241 240 239 238 238 238 237 237 237 237 236 236 236 236 235 235 235 235 236 237 237 239 240 241 242 243 243 243 244 244 245 246 247
277 277 276 276 276 276 276 276 275 275 274 273 272 271 271 270 270 270 270 270 270 270 270 269 269 268 268 267 267 266 266 265 264 263 262 261 260 259 258 257 256 255 254 253 251 250 249 247 246 245 244 242 241 240 240 239 238 238 237 237 237 237 236 236 236 236 235 235 235 235 235 236 237 237 239 240 241 242 242 242 243 244 245 245 246 247
275 275 275 275 276 276 275 275 274 273 272 271 270 270 270 270 270 270 271 271 270 270 269 269 268 268 267 267 266 266 265 264 264 263 262 261 259 259 258 257 256 255 254 253 252 250 249 247 246 245 244 243 242 241 241 240 239 239 238 237 237 237 236 236 236 236 236 236 236 236 236 236 237 238 239 240 241 241 241 242 243 244 245 246 247 248
274 274 275 275 275 275 274 273 272 271 270 270 269 269 270 270 271 271 271 271 270 269 269 268 268 267 266 266 265 265 264 264 263 262 261 260 259 258 257 257 256 255 254 253 252 251 249 248 247 245 245 243 243 243 242 241 240 240 239 238 237 237 237 236 236 236 236 236 236 236 236 237 237 238 239 240 240 241 241 242 243 244 245 246 247 248
274 274 275 275 274 274 273 272 271 270 269 269 269 270 270 270 271 271 271 270 269 269 268 268 267 266 266 265 264 264 263 262 262 261 260 259 258 258 257 256 256 255 254 253 252 251 250 249 247 246 245 244 243 242 242 241 241 240 239 238 238 238 237 236 236 236 236 236 236 236 237 237 238 238 239 240 240 241 242 243 244 245 246 246 248 249
274 274 274 274 273 272 271 270 270 269 269 269 270 270 270 270 270 270 270 269 269 268 268 267 266 266 265 264 263 263 262 261 260 260 259 259 258 257 257 256 255 255 254 253 252 251 250 248 247 245 244 243 241 241 240 240 240 239 239 237 237 237 237 236 236 236 236 236 237 237 238 238 239 239 240 241 241 242 243 244 245 246 247 248 249 249
273 273 272 272 271 270 270 269 269 269 270 270 270 270 270 270 270 269 269 268 268 267 267 266 265 264 264 263 262 261 261 260 259 259 258 258 257 257 256 255 255 254 253 253 251 250 249 247 245 244 243 241 240 239 238 238 238 238 237 237 237 237 236 235 235 235 236 236 237 238 238 239 240 240 241 242 243 244 245 246 246 247 248 249 250 251
272 272 271 270 270 270 269 270 270 270 270 270 270 270 270 269 269 269 268 267 267 266 266 265 264 263 262 261 261 260 260 259 258 258 258 257 257 256 256 255 254 253 252 251 250 249 247 246 244 243 241 240 239 238 237 237 237 237 237 236 236 235 235 235 235 236 236 237 238 239 239 240 241 242 242 243 244 245 246 247 247 248 249 250 251 252
271 270 270 270 269 270 270 270 270 270 270 271 270 270 269 269 269 268 267 267 266 265 265 264 263 263 262 261 260 259 259 259 258 258 257 257 256 255 254 253 252 251 249 249 248 247 246 244 243 242 240 240 238 237 237 236 236 237 237 236 236 235 235 236 236 237 237 238 239 239 240 241 242 242 243 244 245 246 246 247 248 249 250 251 252 254
270 269 269 269 270 270 270 271 271 271 271 270 270 270 269 269 268 268 267 266 266 265 264 263 263 262 261 261 260 259 259 258 258 258 257 256 255 254 253 251 250 249 247 246 245 245 244 243 242 241 240 239 238 238 237 236 236 237 236 236 236 236 236 236 236 237 237 238 239 239 240 241 241 242 243 244 245 246 247 248 249 250 252 253 254 255
269 269 269 270 270 271 271 271 271 271 271 270 270 269 269 268 268 267 267 266 265 264 264 263 262 262 261 261 260 259 259 259 258 257 256 255 253 252 251 249 248 247 246 245 243 242 241 241 240 240 239 238 237 237 236 236 236 235 235 235 235 235 235 235 235 235 236 237 237 238 239 240 241 242 243 245 246 247 248 249 251 252 253 254 255 256
269 270 270 271 271 271 271 271 271 271 271 270 270 269 269 268 268 267 266 265 265 264 263 263 262 261 261 261 260 259 259 258 257 256 254 253 252 250 249 248 246 245 244 243 242 240 239 238 238 237 237 236 235 235 235 235 234 234 234 234 234 233 233 233 234 234 235 236 237 238 239 240 241 243 244 246 247 249 250 251 252 253 254 256 256 257
270 270 271 271 271 271 271 271 271 271 270 270 269 269 268 268 267 266 266 265 263 263 262 262 261 260 260 260 259 258 257 256 255 253 252 251 250 249 247 246 245 244 242 241 239 238 237 236 235 235 235 235 234 233 233 233 233 232 232 232 232 232 233 233 234 235 236 237 238 239 241 242 243 245 246 248 249 250 251 252 253 254 255 256 256 257
271 271 271 271 271 271 271 271 271 270 270 269 268 268 267 266 266 264 263 262 261 260 259 259 258 258 257 257 256 254 253 252 251 250 249 249 248 247 246 244 243 242 240 239 237 236 235 234 233 232 232 232 233 233 233 233 232 232 232 232 232 233 234 234 236 237 238 239 241 242 243 244 245 246 248 249 250 251 252 252 253 254 255 256 257 257
271 271 271 272 271 271 271 270 270 269 268 267 267 266 265 264 263 262 260 258 257 256 255 254 253 253 252 251 250 248 247 246 246 245 244 244 244 243 242 241 240 239 238 236 235 233 232 231 231 230 230 230 230 231 232 233 233 233 233 233 234 235 236 238 239 240 241 242 243 244 245 246 247 248 249 251 251 253 253 254 254 255 256 257 258 259
272 272 271 271 271 270 269 268 267 267 266 265 264 263 262 260 258 256 254 253 251 250 248 248 247 245 245 244 243 242 241 240 239 239 239 238 238 238 237 236 236 235 235 234 233 232 230 230 230 231 231 230 231 231 232 234 235 235 236 237 239 240 241 242 243 244 245 246 247 248 249 249 250 251 251 253 254 256 257 257 258 259 260 261 261 262
Height
10281 10280 10278 10278 10277 10276 10275 10273 10272 10270 10267 10266 10265 10263 10261 10258 10256 10255 10253 10252 10251 10249 10248 10248 10249 10250 10250 10251 10250 10250 10250 10250 10251 10252 10253 10254 10254 10255 10256 10256 10258 10259 10261 10263 10265 10267 10269 10271 10273 10275 10277 10280 10282 10284 10285 10286 10288 10290 10291 10295 10298 10298 10298 10300 10301 10302 10302 10303 10305 10306 10308 10309 10310 10311 10313 10313 10314 10314 10315 10315 10316 10318 10318 10317 10316 10316
10268 10266 10264 10263 10263 10262 10260 10259 10258 10256 10254 10252 10251 10251 10249 10246 10245 10243 10241 10241 10239 10238 10237 10237 10237 10238 10239 10239 10239 10239 10239 10240 10241 10241 10242 10243 10244 10245 10246 10246 10248 10249 10250 10252 10254 10256 10258 10260 10263 10265 10268 10271 10273 10275 10276 10277 10278 10280 10283 10285 10288 10290 10291 10291 10292 10293 10293 10295 10296 10298 10300 10301 10303 10304 10305 10306 10306 10307 10307 10308 10308 10308 10308 10309 10308 10307
10256 10253 10251 10250 10250 10249 10247 10245 10244 10243 10240 10239 10238 10238 10236 10234 10233 10231 10230 10229 10228 10226 10226 10226 10226 10227 10228 10228 10229 10229 10229 10229 10229 10231 10231 10233 10233 10235 10236 10237 10238 10239 10240 10241 10243 10245 10246 10249 10251 10255 10258 10261 10264 10266 10267 10268 10270 10271 10273 10276 10278 10281 10283 10283 10284 10285 10285 10287 10288 10290 10291 10293 10294 10295 10296 10299 10300 10299 10300 10301 10301 10301 10300 10301 10300 10300
10246 10242 10239 10238 10237 10236 10234 10233 10231 10229 10227 10226 10225 10224 10224 10223 10222 10221 10220 10219 10217 10216 10215 10216 10216 10216 10217 10217 10218 10219 10219 10219 10219 10219 10221 10223 10224 10225 10226 10227 10228 10229 10231 10231 10233 10234 10236 10238 10241 10244 10248 10251 10254 10256 10258 10260 10261 10263 10265 10266 10269 10271 10273 10275 10276 10276 10278 10279 10280 10281 10283 10285 10286 10288 10290 10290 10290 10292 10293 10294 10294 10294 10293 10293 10293 10293
10234 10231 10228 10226 10225 10224 10223 10221 10219 10216 10214 10214 10213 10213 10212 10211 10211 10210 10209 10208 10207 10206 10205 10205 10205 10205 10206 10206 10207 10208 10209 10209 10209 10209 10211 10213 10214 10216 10216 10218 10219 10219 10221 10222 10223 10224 10225 10228 10230 10233 10237 10241 10244 10246 10249 10251 10253 10254 10256 10258 10260 10262 10264 10266 10268 10270 10270 10271 10272 10273 10275 10276 10278 10280 10281 10282 10285 10288 10290 10289 10288 10287 10286 10286 10286 10285
10223 10221 10218 10215 10214 10213 10212 10210 10208 10205 10203 10203 10202 10202 10201 10201 10200 10199 10199 10198 10198 10196 10196 10196 10195 10195 10195 10196 10196 10198 10198 10198 10199 10200 10201 10203 10204 10205 10207 10208 10209 10210 10211 10212 10213 10214 10216 10218 10220 10223 10227 10231 10234 10237 10239 10241 10243 10245 10247 10249 10251 10253 10255 10258 10261 10263 10264 10265 10266 10267 10268 10269 10270 10271 10273 10275 10278 10283 10285 10284 10283 10281 10280 10280 10278 10278
10211 10211 10208 10206 10203 10203 10202 10200 10198 10195 10193 10192 10191 10192 10192 10191 10190 10189 10189 10189 10188 10187 10186 10186 10186 10186 10186 10186 10187 10188 10188 10189 10189 10191 10192 10193 10194 10195 10196 10198 10199 10200 10201 10203 10204 10205 10206 10208 10211 10214 10217 10221 10224 10227 10229 10232 10234 10236 10238 10239 10242 10244 10246 10249 10251 10253 10256 10258 10260 10260 10261 10261 10263 10264 10265 10266 10269 10273 10276 10276 10276 10276 10275 10273 10272 10271
10199 10199 10199 10197 10194 10193 10192 10191 10189 10186 10183 10182 10182 10182 10183 10182 10181 10180 10179 10179 10179 10178 10178 10178 10178 10178 10178 10178 10179 10178 10179 10179 10180 10181 10183 10183 10184 10185 10187 10188 10189 10191 10192 10193 10194 10196 10198 10200 10202 10204 10208 10211 10214 10218 10220 10222 10224 10227 10229 10231 10233 10235 10237 10239 10241 10244 10246 10248 10250 10251 10253 10254 10255 10257 10258 10260 10260 10262 10265 10268 10269 10269 10268 10267 10265 10265
10189 10188 10188 10188 10186 10184 10182 10181 10180 10178 10174 10173 10172 10173 10173 10173 10173 10171 10171 10171 10170 10170 10169 10169 10169 10169 10169 10169 10169 10169 10169 10169 10170 10171 10172 10173 10174 10176 10177 10179 10180 10181 10183 10184 10186 10188 10189 10192 10194 10196 10199 10201 10204 10208 10210 10213 10215 10218 10219 10222 10224 10226 10229 10231 10233 10234 10237 10239 10241 10242 10243 10245 10247 10249 10251 10252 10253 10254 10255 10258 10261 10262 10261 10261 10260 10259
10179 10179 10178 10178 10178 10176 10174 10172 10171 10170 10167 10164 10163 10163 10164 10164 10163 10163 10163 10163 10162 10161 10161 10161 10161 10161 10161 10161 10161 10160 10160 10161 10161 10163 10163 10164 10165 10166 10168 10169 10170 10172 10174 10176 10178 10180 10182 10184 10186 10188 10189 10192 10195 10198 10201 10204 10206 10208 10211 10213 10216 10218 10220 10222 10224 10226 10228 10231 10233 10233 10234 10236 10238 10241 10243 10245 10246 10246 10248 10250 10254 10256 10255 10254 10253 10253
10170 10170 10170 10169 10169 10168 10166 10164 10163 10161 10159 10156 10154 10154 10155 10155 10154 10154 10154 10154 10154 10153 10152 10152 10153 10154 10154 10154 10153 10152 10152 10152 10153 10154 10156 10156 10157 10158 10159 10160 10161 10163 10165 10167 10170 10173 10174 10176 10178 10179 10181 10183 10186 10189 10192 10194 10197 10199 10202 10204 10207 10210 10212 10214 10216 10218 10219 10222 10224 10225 10226 10228 10229 10232 10235 10237 10238 10240 10242 10243 10246 10248 10247 10247 10246 10246
10161 10161 10161 10161 10161 10160 10158 10156 10154 10153 10151 10148 10147 10146 10146 10146 10146 10145 10146 10147 10148 10146 10144 10144 10144 10146 10146 10146 10145 10144 10144 10144 10146 10147 10148 10148 10149 10149 10150 10151 10153 10154 10156 10159 10162 10164 10166 10168 10169 10171 10173 10175 10178 10180 10183 10186 10189 10191 10194 10196 10199 10202 10204 10206 10208 10209 10211 10214 10216 10218 10219 10219 10221 10224 10226 10229 10231 10234 10236 10238 10241 10241 10239 10238 10238 10238
10153 10153 10153 10153 10153 10152 10150 10148 10146 10144 10143 10141 10139 10138 10138 10138 10137 10136 10137 10139 10141 10140 10139 10138 10138 10138 10138 10138 10138 10138 10137 10137 10138 10139 10141 10141 10141 10141 10142 10143 10144 10146 10149 10151 10154 10156 10158 10159 10161 10163 10164 10166 10169 10171 10174 10177 10180 10183 10186 10188 10191 10194 10196 10198 10200 10201 10203 10205 10208 10209 10211 10213 10214 10216 10219 10221 10224 10228 10231 10234 10236 10234 10232 10231 10230 10230
10146 10146 10145 10145 10144 10143 10141 10139 10138 10136 10135 10133 10131 10130 10130 10130 10129 10129 10129 10131 10133 10134 10133 10131 10131 10131 10131 10130 10129 10129 10129 10129 10130 10131 10133 10133 10133 10133 10134 10135 10137 10139 10141 10143 10145 10147 10149 10151 10153 10154 10157 10158 10160 10163 10166 10169 10172 10175 10178 10180 10183 10186 10188 10190 10192 10193 10195 10197 10199 10201 10203 10205 10207 10209 10211 10214 10216 10220 10223 10228 10229 10228 10226 10224 10224 10224
10138 10138 10137 10137 10136 10135 10133 10131 10129 10128 10127 10126 10124 10123 10123 10123 10123 10123 10123 10124 10125 10126 10126 10126 10126 10125 10124 10123 10121 10121 10121 10121 10123 10124 10124 10125 10126 10126 10126 10127 10129 10131 10134 10135 10137 10139 10141 10143 10144 10146 10149 10151 10153 10154 10158 10161 10164 10167 10169 10173 10175 10178 10180 10182 10183 10185 10187 10189 10191 10194 10196 10198 10199 10201 10204 10206 10209 10213 10216 10220 10221 10221 10220 10219 10219 10219
10131 10130 10129 10128 10128 10126 10124 10123 10121 10119 10119 10118 10117 10116 10116 10115 10116 10116 10116 10117 10118 10119 10119 10119 10119 10119 10118 10116 10114 10113 10113 10113 10115 10116 10118 10119 10119 10119 10120 10120 10121 10123 10126 10128 10129 10131 10133 10134 10136 10139 10141 10143 10145 10147 10150 10153 10156 10159 10162 10165 10168 10170 10173 10174 10175 10177 10179 10181 10183 10186 10188 10191 10193 10194 10197 10199 10203 10206 10209 10212 10214 10214 10213 10213 10213 10214
10124 10122 10121 10120 10119 10118 10116 10114 10113 10112 10112 10111 10110 10109 10109 10109 10110 10110 10110 10110 10111 10112 10112 10112 10113 10112 10111 10109 10107 10106 10105 10106 10108 10111 10113 10113 10114 10114 10114 10114 10115 10116 10118 10120 10121 10123 10124 10126 10129 10131 10133 10136 10138 10140 10143 10146 10149 10151 10154 10158 10161 10163 10164 10166 10167 10169 10171 10173 10176 10178 10181 10184 10186 10188 10190 10193 10196 10199 10202 10204 10205 10206 10206 10206 10206 10208
10116 10114 10113 10112 10111 10109 10109 10108 10106 10105 10104 10104 10104 10104 10104 10104 10104 10104 10104 10104 10104 10105 10105 10106 10106 10106 10105 10103 10100 10098 10098 10099 10101 10104 10106 10106 10106 10106 10106 10106 10107 10108 10111 10112 10113 10115 10117 10119 10121 10124 10126 10129 10131 10134 10136 10139 10142 10145 10148 10150 10153 10155 10156 10157 10159 10161 10163 10165 10168 10171 10174 10177 10179 10182 10184 10187 10190 10193 10196 10197 10198 10198 10199 10199 10199 10201
10109 10107 10106 10104 10103 10103 10101 10100 10099 10098 10098 10098 10098 10098 10098 10098 10098 10098 10098 10098 10098 10099 10099 10099 10099 10099 10099 10097 10094 10091 10091 10091 10093 10096 10099 10099 10100 10100 10099 10099 10100 10102 10104 10105 10106 10108 10109 10112 10114 10117 10119 10122 10125 10128 10130 10133 10136 10138 10141 10143 10145 10146 10148 10149 10151 10153 10155 10158 10160 10164 10167 10171 10173 10176 10178 10181 10184 10187 10189 10191 10191 10192 10193 10193 10194 10194
10101 10099 10098 10096 10096 10096 10095 10094 10093 10092 10091 10091 10092 10093 10093 10092 10092 10092 10091 10092 10093 10093 10094 10094 10094 10093 10093 10090 10088 10085 10084 10084 10086 10090 10093 10094 10094 10094 10093 10093 10094 10095 10097 10098 10099 10101 10103 10105 10108 10110 10113 10116 10118 10121 10124 10127 10129 10132 10134 10136 10137 10138 10139 10141 10143 10146 10148 10151 10153 10156 10160 10164 10167 10169 10172 10175 10178 10181 10183 10184 10185 10186 10187 10188 10189 10189
10094 10093 10091 10090 10089 10089 10089 10088 10087 10086 10086 10086 10088 10088 10088 10088 10087 10086 10086 10086 10086 10087 10088 10089 10088 10088 10086 10084 10082 10079 10078 10078 10080 10084 10087 10088 10088 10087 10086 10086 10088 10089 10091 10093 10093 10095 10097 10099 10102 10104 10107 10109 10113 10116 10118 10121 10123 10126 10127 10128 10129 10131 10132 10134 10136 10138 10141 10144 10147 10150 10154 10157 10161 10163 10166 10169 10172 10174 10176 10178 10179 10181 10181 10183 10184 10185
10088 10086 10085 10084 10084 10084 10083 10083 10082 10081 10082 10083 10084 10084 10083 10082 10081 10081 10080 10080 10081 10081 10082 10082 10082 10081 10081 10079 10076 10074 10072 10072 10074 10078 10081 10083 10082 10081 10081 10081 10082 10084 10086 10087 10088 10089 10091 10094 10096 10099 10101 10104 10107 10110 10113 10115 10118 10119 10120 10121 10122 10123 10125 10127 10129 10132 10134 10138 10141 10144 10148 10151 10155 10158 10161 10164 10166 10169 10170 10172 10173 10174 10176 10177 10178 10179
10080 10079 10079 10079 10078 10078 10079 10079 10079 10079 10078 10078 10078 10077 10077 10076 10076 10075 10075 10074 10075 10075 10076 10076 10076 10076 10074 10073 10071 10068 10067 10067 10069 10073 10076 10078 10077 10076 10076 10076 10078 10079 10081 10082 10083 10084 10086 10089 10091 10093 10096 10099 10102 10104 10107 10109 10111 10112 10113 10114 10115 10117 10119 10121 10123 10126 10128 10131 10134 10138 10141 10146 10149 10153 10156 10159 10161 10163 10164 10166 10167 10169 10170 10171 10173 10174
10073 10073 10074 10074 10074 10074 10074 10074 10074 10074 10072 10071 10070 10070 10070 10071 10071 10071 10070 10070 10070 10070 10071 10071 10071 10070 10068 10068 10066 10063 10063 10063 10066 10069 10072 10073 10073 10073 10071 10072 10073 10074 10076 10077 10078 10079 10081 10084 10086 10089 10091 10094 10096 10099 10101 10103 10104 10106 10106 10108 10109 10111 10113 10115 10118 10120 10122 10124 10128 10131 10135 10139 10143 10147 10151 10153 10155 10157 10158 10159 10161 10163 10164 10166 10167 10168
10066 10067 10068 10069 10069 10070 10069 10069 10068 10067 10066 10066 10065 10065 10065 10065 10066 10066 10066 10065 10065 10064 10065 10065 10065 10064 10063 10062 10061 10059 10059 10061 10063 10066 10068 10070 10070 10069 10068 10067 10068 10069 10071 10073 10074 10076 10078 10079 10081 10084 10086 10089 10091 10094 10096 10097 10098 10099 10101 10102 10104 10106 10108 10110 10113 10114 10116 10119 10122 10125 10128 10132 10136 10140 10144 10147 10149 10151 10152 10153 10155 10157 10159 10160 10161 10163
10059 10061 10062 10063 10064 10064 10064 10064 10063 10063 10062 10061 10061 10060 10060 10060 10060 10060 10060 10059 10059 10060 10061 10060 10059 10059 10058 10057 10056 10056 10056 10056 10058 10061 10064 10066 10066 10064 10063 10063 10063 10065 10066 10069 10070 10071 10073 10074 10077 10079 10081 10084 10086 10089 10090 10091 10093 10094 10095 10097 10099 10101 10103 10105 10108 10109 10112 10114 10116 10119 10123 10126 10129 10133 10137 10141 10143 10144 10146 10148 10149 10151 10154 10155 10156 10158
10054 10054 10056 10057 10058 10059 10059 10059 10058 10058 10058 10057 10056 10056 10056 10056 10055 10055 10054 10054 10055 10056 10056 10055 10054 10053 10052 10051 10051 10051 10051 10053 10054 10056 10059 10061 10062 10061 10059 10059 10059 10061 10063 10065 10066 10068 10069 10070 10072 10074 10077 10079 10081 10084 10085 10086 10088 10089 10090 10093 10094 10096 10098 10100 10103 10104 10107 10109 10113 10115 10118 10121 10124 10128 10131 10134 10136 10138 10140 10142 10144 10146 10148 10149 10151 10152
10049 10049 10051 10052 10053 10053 10054 10053 10053 10053 10053 10053 10052 10052 10052 10052 10051 10050 10048 10049 10049 10050 10049 10049 10048 10048 10047 10047 10047 10047 10048 10049 10051 10053 10056 10058 10058 10057 10056 10055 10056 10057 10059 10061 10063 10063 10064 10066 10068 10069 10072 10074 10077 10079 10081 10082 10083 10084 10086 10088 10089 10091 10094 10096 10098 10100 10103 10106 10108 10111 10113 10116 10119 10122 10125 10128 10131 10133 10134 10136 10139 10141 10143 10144 10145 10147
10044 10045 10046 10047 10048 10048 10049 10048 10048 10048 10048 10048 10048 10047 10047 10048 10047 10046 10044 10044 10044 10044 10044 10044 10044 10044 10043 10043 10043 10043 10043 10044 10047 10049 10053 10054 10054 10053 10053 10052 10053 10054 10056 10058 10058 10058 10059 10061 10063 10066 10068 10070 10073 10074 10076 10078 10078 10079 10081 10083 10085 10087 10089 10091 10094 10096 10099 10101 10104 10106 10109 10112 10114 10117 10120 10123 10125 10127 10129 10131 10133 10135 10137 10139 10140 10142
10040 10041 10042 10043 10043 10043 10044 10044 10043 10043 10043 10043 10043 10043 10042 10043 10043 10041 10040 10040 10040 10040 10040 10039 10039 10039 10039 10039 10039 10038 10039 10040 10043 10046 10049 10050 10050 10049 10049 10048 10049 10050 10052 10053 10053 10054 10055 10057 10059 10061 10064 10066 10068 10070 10071 10073 10074 10075 10077 10079 10081 10083 10085 10088 10090 10093 10094 10097 10099 10102 10104 10107 10110 10113 10115 10118 10119 10121 10124 10126 10128 10130 10132 10134 10136 10137
10035 10036 10038 10038 10039 10039 10039 10039 10038 10038 10038 10038 10038 10038 10038 10038 10038 10038 10037 10037 10036 10036 10035 10035 10035 10035 10036 10036 10035 10034 10034 10036 10040 10043 10046 10046 10046 10045 10044 10044 10045 10046 10048 10049 10049 10050 10051 10053 10055 10058 10060 10062 10064 10065 10066 10068 10069 10071 10073 10074 10076 10079 10081 10084 10086 10088 10091 10093 10096 10098 10100 10103 10105 10108 10110 10112 10114 10116 10119 10121 10123 10125 10127 10129 10131 10132
10030 10032 10033 10034 10034 10034 10034 10034 10034 10033 10033 10033 10033 10033 10033 10033 10034 10034 10034 10033 10033 10032 10031 10031 10031 10031 10032 10033 10032 10031 10031 10033 10036 10040 10042 10043 10041 10041 10040 10041 10041 10043 10044 10045 10046 10047 10048 10049 10051 10053 10056 10058 10059 10061 10062 10063 10064 10066 10068 10069 10073 10075 10078 10079 10082 10084 10086 10089 10091 10094 10096 10098 10101 10103 10105 10107 10109 10111 10114 10116 10118 10120 10122 10124 10125 10126
10026 10027 10028 10029 10029 10030 10029 10029 10029 10029 10028 10028 10029 10029 10029 10029 10029 10029 10029 10029 10028 10028 10028 10027 10027 10028 10028 10028 10028 10028 10028 10031 10034 10037 10038 10038 10037 10036 10036 10038 10038 10039 10040 10041 10043 10044 10045 10046 10048 10049 10051 10053 10055 10056 10058 10059 10060 10062 10064 10066 10069 10071 10073 10075 10077 10079 10081 10084 10086 10089 10091 10094 10096 10098 10100 10103 10104 10107 10109 10111 10113 10116 10118 10119 10120 10121
10021 10022 10023 10024 10024 10025 10025 10024 10024 10024 10024 10024 10024 10024 10024 10024 10024 10024 10024 10024 10024 10024 10024 10024 10024 10024 10024 10024 10024 10025 10026 10028 10031 10033 10034 10034 10033 10033 10033 10034 10034 10036 10037 10038 10039 10041 10041 10043 10044 10046 10048 10049 10050 10051 10053 10054 10056 10058 10061 10063 10064 10066 10068 10070 10072 10074 10076 10079 10082 10084 10087 10089 10092 10094 10096 10098 10100 10103 10104 10106 10109 10111 10112 10114 10115 10117
10016 10018 10018 10019 10020 10020 10020 10020 10021 10021 10021 10021 10021 10020 10020 10020 10020 10020 10020 10021 10021 10021 10021 10021 10021 10021 10022 10022 10022 10022 10023 10024 10027 10029 10030 10030 10030 10030 10030 10031 10031 10033 10034 10034 10036 10037 10038 10039 10041 10042 10043 10044 10046 10048 10049 10051 10053 10054 10057 10059 10060 10062 10064 10066 10068 10070 10073 10075 10078 10080 10083 10085 10087 10089 10091 10094 10096 10098 10100 10102 10104 10106 10108 10109 10111 10113
10012 10013 10014 10014 10015 10015 10016 10016 10016 10016 10016 10016 10016 10016 10016 10016 10016 10016 10016 10017 10017 10018 10018 10018 10019 10019 10019 10019 10019 10019 10020 10021 10023 10025 10026 10027 10027 10028 10028 10028 10028 10029 10031 10031 10033 10034 10034 10036 10036 10038 10039 10041 10042 10044 10045 10046 10048 10051 10053 10054 10056 10058 10059 10061 10064 10066 10068 10071 10073 10076 10078 10081 10083 10086 10088 10090 10092 10094 10096 10098 10100 10101 10103 10104 10106 10108
10008 10009 10009 10010 10011 10011 10012 10012 10013 10013 10013 10012 10012 10011 10011 10012 10012 10012 10013 10013 10014 10014 10014 10015 10015 10016 10016 10016 10017 10018 10018 10019 10020 10021 10023 10023 10024 10024 10024 10025 10026 10027 10028 10029 10029 10030 10031 10033 10033 10034 10036 10038 10039 10040 10041 10043 10044 10047 10049 10051 10053 10054 10056 10058 10061 10063 10065 10068 10069 10072 10074 10077 10079 10081 10084 10086 10088 10089 10092 10094 10096 10097 10099 10100 10102 10104
10004 10004 10005 10006 10007 10008 10008 10008 10009 10008 10008 10008 10008 10008 10008 10008 10008 10009 10009 10010 10011 10011 10011 10011 10012 10013 10013 10014 10014 10015 10016 10016 10018 10018 10019 10020 10021 10021 10022 10023 10023 10024 10025 10026 10027 10028 10029 10030 10031 10032 10033 10034 10036 10037 10038 10039 10041 10043 10045 10047 10049 10051 10053 10055 10058 10059 10061 10064 10066 10069 10071 10074 10076 10078 10079 10082 10084 10086 10088 10089 10091 10093 10094 10096 10098 10099
10000 10001 10001 10003 10003 10004 10004 10004 10004 10004 10004 10004 10004 10004 10004 10005 10006 10006 10006 10007 10007 10008 10008 10008 10008 10009 10010 10011 10011 10013 10013 10014 10014 10015 10016 10017 10018 10019 10019 10020 10021 10021 10023 10024 10024 10026 10026 10027 10028 10029 10030 10031 10033 10034 10035 10036 10038 10040 10042 10044 10046 10048 10050 10053 10054 10056 10058 10061 10063 10066 10068 10070 10072 10074 10076 10078 10080 10082 10084 10085 10087 10089 10090 10092 10094 10095
9996 9998 9998 9999 9999 10000 10000 10000 10000 10000 10000 10001 10001 10001 10002 10002 10003 10003 10003 10003 10004 10004 10004 10005 10006 10006 10007 10008 10009 10009 10011 10011 10012 10013 10014 10014 10015 10016 10017 10018 10018 10019 10021 10021 10023 10023 10024 10024 10025 10026 10028 10029 10030 10031 10033 10034 10036 10038 10040 10042 10043 10044 10047 10049 10052 10053 10055 10058 10059 10062 10064 10066 10068 10071 10073 10074 10076 10078 10079 10081 10083 10084 10086 10088 10089 10091
9993 9994 9995 9996 9996 9996 9996 9996 9996 9997 9997 9998 9998 9998 9999 9999 9999 9999 10000 10000 10000 10001 10001 10001 10002 10003 10004 10005 10006 10007 10008 10009 10009 10011 10011 10012 10013 10014 10015 10016 10016 10017 10018 10019 10020 10021 10021 10022 10023 10024 10025 10026 10028 10029 10030 10031 10033 10035 10038 10038 10040 10042 10044 10047 10049 10051 10053 10054 10056 10059 10061 10063 10065 10068 10069 10071 10073 10074 10076 10078 10079 10081 10083 10084 10085 10087
9990 9991 9991 9991 9992 9992 9993 9993 9993 9994 9994 9994 9995 9995 9996 9996 9996 9996 9997 9997 9997 9998 9998 9998 9999 10000 10001 10002 10003 10004 10005 10006 10008 10008 10009 10010 10011 10012 10013 10014 10014 10015 10016 10017 10018 10018 10019 10020 10021 10021 10022 10023 10025 10026 10028 10029 10031 10033 10034 10036 10038 10040 10043 10044 10046 10048 10050 10052 10054 10056 10058 10060 10062 10064 10066 10068 10069 10071 10073 10074 10076 10077 10078 10079 10081 10083
9986 9987 9988 9988 9988 9989 9989 9989 9990 9991 9991 9992 9992 9993 9993 9993 9993 9994 9994 9994 9994 9994 9995 9996 9996 9997 9998 9999 10000 10001 10003 10004 10005 10006 10008 10009 10009 10011 10011 10012 10013 10014 10014 10014 10015 10016 10017 10018 10019 10019 10020 10021 10023 10024 10025 10026 10029 10031 10033 10034 10036 10038 10040 10041 10043 10046 10048 10049 10051 10053 10055 10057 10059 10061 10063 10064 10066 10068 10069 10071 10071 10073 10074 10076 10077 10078
9983 9984 9984 9984 9985 9986 9986 9987 9988 9988 9988 9989 9989 9989 9989 9990 9991 9991 9991 9991 9991 9991 9992 9993 9994 9994 9995 9996 9997 9999 10000 10001 10003 10004 10006 10007 10008 10009 10009 10010 10011 10011 10012 10013 10013 10014 10014 10015 10016 10017 10018 10019 10021 10021 10023 10024 10026 10029 10030 10032 10034 10035 10037 10039 10041 10043 10045 10047 10049 10051 10053 10054 10056 10058 10059 10061 10063 10064 10065 10066 10068 10069 10070 10071 10073 10074
9980 9981 9981 9981 9982 9983 9984 9984 9984 9985 9986 9986 9986 9986 9987 9987 9988 9988 9988 9988 9988 9989 9989 9990 9991 9992 9993 9994 9995 9996 9998 9999 10001 10003 10003 10004 10006 10006 10007 10008 10008 10009 10009 10010 10011 10011 10012 10013 10014 10015 10016 10018 10019 10020 10021 10023 10024 10026 10028 10030 10031 10033 10035 10037 10039 10041 10043 10045 10046 10048 10050 10052 10053 10055 10056 10058 10059 10059 10061 10062 10063 10064 10066 10067 10068 10069
9977 9978 9978 9979 9979 9980 9981 9981 9982 9983 9983 9983 9983 9984 9984 9984 9984 9985 9986 9986 9986 9987 9988 9988 9989 9990 9991 9992 9993 9994 9996 9997 9998 9999 10001 10002 10003 10003 10004 10005 10006 10006 10007 10008 10009 10009 10010 10011 10012 10013 10014 10016 10018 10019 10020 10021 10023 10024 10026 10028 10029 10031 10033 10036 10037 10039 10041 10042 10044 10045 10047 10048 10050 10051 10052 10053 10054 10055 10056 10058 10059 10060 10061 10062 10063 10064
9974 9975 9976 9977 9978 9978 9979 9979 9979 9979 9980 9980 9981 9981 9981 9982 9982 9983 9983 9984 9984 9985 9986 9986 9987 9988 9989 9990 9991 9992 9993 9994 9996 9996 9998 9998 9999 10001 10001 10003 10003 10004 10005 10006 10006 10008 10008 10009 10011 10012 10013 10014 10016 10017 10019 10020 10021 10023 10024 10026 10028 10029 10031 10033 10034 10036 10038 10039 10041 10042 10043 10044 10046 10047 10048 10049 10050 10051 10053 10054 10054 10056 10056 10058 10058 10059
9973 9973 9974 9974 9975 9976 9976 9976 9977 9977 9978 9978 9978 9978 9979 9979 9980 9981 9981 9982 9983 9983 9984 9984 9985 9986 9987 9988 9989 9990 9991 9992 9993 9994 9994 9996 9997 9998 9999 10000 10001 10002 10003 10004 10005 10006 10007 10008 10009 10011 10012 10013 10014 10016 10017 10018 10019 10021 10023 10024 10026 10027 10028 10030 10032 10033 10034 10036 10037 10038 10039 10041 10042 10043 10044 10045 10046 10047 10048 10049 10050 10051 10052 10053 10053 10054
9971 9971 9972 9973 9973 9974 9974 9974 9974 9974 9975 9975 9976 9976 9977 9978 9978 9979 9979 9980 9981 9981 9982 9983 9983 9984 9985 9986 9987 9988 9989 9990 9991 9991 9993 9994 9994 9996 9997 9998 9999 10000 10001 10003 10003 10004 10006 10007 10008 10009 10011 10012 10013 10014 10015 10016 10018 10019 10020 10022 10023 10024 10026 10027 10028 10029 10031 10032 10033 10034 10036 10037 10038 10039 10040 10041 10042 10043 10043 10044 10045 10046 10047 10048 10049 10049
9969 9969 9970 9971 9971 9971 9971 9972 9973 9973 9973 9973 9974 9974 9975 9976 9976 9977 9978 9978 9979 9979 9980 9981 9982 9983 9984 9984 9985 9986 9987 9988 9989 9989 9991 9992 9993 9994 9995 9996 9998 9999 10000 10001 10002 10003 10004 10005 10006 10008 10009 10010 10011 10012 10013 10014 10015 10016 10018 10019 10020 10021 10023 10024 10025 10026 10028 10029 10030 10031 10032 10033 10034 10035 10036 10037 10038 10038 10039 10039 10040 10041 10042 10043 10043 10044
9967 9968 9968 9969 9969 9969 9969 9970 9970 9971 9971 9972 9973 9973 9974 9974 9974 9975 9976 9976 9977 9978 9979 9979 9980 9981 9982 9983 9983 9984 9985 9986 9988 9988 9989 9991 9992 9993 9994 9995 9996 9997 9998 9999 9999 10001 10001 10003 10004 10005 10006 10008 10009 10009 10011 10011 10013 10014 10014 10016 10017 10018 10019 10021 10022 10023 10024 10026 10026 10028 10029 10029 10030 10031 10032 10033 10033 10034 10034 10035 10036 10036 10037 10038 10039 10039